Location: Eymir
(36.7333°N, 29.7833°E)
Time: 18:07:36
(UTC+00:00)

BREEZE M DEB (TANK) - Pass Details

Date: 14 January 2026
Orbit: 286 x 11206 km, 49.5° (Epoch: 16 February)

Event Time Altitude Azimuth Distance (km) Brightness Sun altitude
Exits shadow 03:27:03 18° 2° (N) 1,324 4.1 -20.8°
Maximum altitude 03:28:27 22° 36° (NE) 1,394 4.6 -20.6°
Drops below altitude 10° 03:33:28 10° 86° (E) 3,187 7.3 -19.6°
Sets 03:39:16 0° 99° (E) 5,625 9.1 -18.5°
